TimeCST,TemperatureF,Dew PointF,Humidity,Sea Level PressureIn,VisibilityMPH,Wind Direction,Wind SpeedMPH,Gust SpeedMPH,PrecipitationIn,Events,Conditions,WindDirDegrees,DateUTC
12:53 AM,37.0,36.0,96,30.00,10.0,NNW,5.8,-,N/A,,Overcast,330,2013-01-16 06:53:00
1:53 AM,37.0,35.1,93,30.01,8.0,NNW,8.1,-,0.01,,Overcast,340,2013-01-16 07:53:00
2:53 AM,37.0,36.0,96,30.04,6.0,WNW,5.8,-,0.02,,Overcast,300,2013-01-16 08:53:00
3:43 AM,35.6,35.6,100,30.04,8.0,NNW,6.9,-,0.07,,Overcast,340,2013-01-16 09:43:00
3:53 AM,37.0,35.1,93,30.03,6.0,North,6.9,-,0.08,,Overcast,360,2013-01-16 09:53:00
4:03 AM,35.6,35.6,100,30.02,5.0,North,5.8,-,N/A,,Overcast,10,2013-01-16 10:03:00
4:36 AM,35.6,35.6,100,30.02,5.0,North,4.6,-,0.02,,Overcast,350,2013-01-16 10:36:00
4:53 AM,36.0,35.1,97,30.03,8.0,Calm,Calm,-,0.03,,Overcast,0,2013-01-16 10:53:00
5:12 AM,35.6,35.6,100,30.01,6.0,Calm,Calm,-,0.02,,Overcast,0,2013-01-16 11:12:00
5:46 AM,37.4,35.6,93,30.03,10.0,NW,6.9,-,0.03,,Overcast,310,2013-01-16 11:46:00
5:53 AM,37.0,35.1,93,30.04,10.0,NW,5.8,-,0.03,,Overcast,320,2013-01-16 11:53:00
6:53 AM,36.0,35.1,97,30.05,10.0,NNW,6.9,-,0.02,,Overcast,330,2013-01-16 12:53:00
7:28 AM,35.6,35.6,100,30.08,10.0,NW,10.4,-,N/A,,Overcast,320,2013-01-16 13:28:00
7:53 AM,37.0,35.1,93,30.10,6.0,NW,9.2,-,0.01,,Overcast,320,2013-01-16 13:53:00
8:53 AM,37.0,35.1,93,30.11,10.0,NNE,3.5,-,N/A,,Overcast,30,2013-01-16 14:53:00
9:41 AM,37.4,35.6,93,30.11,10.0,North,4.6,-,N/A,,Overcast,360,2013-01-16 15:41:00
9:53 AM,37.0,35.1,93,30.11,7.0,North,5.8,-,0.01,,Overcast,10,2013-01-16 15:53:00
10:04 AM,37.4,35.6,93,30.10,8.0,NNE,3.5,-,N/A,,Overcast,30,2013-01-16 16:04:00
10:16 AM,37.4,35.6,93,30.09,8.0,NNE,4.6,-,0.01,,Overcast,30,2013-01-16 16:16:00
10:53 AM,37.0,35.1,93,30.10,10.0,North,4.6,-,0.02,,Mostly Cloudy,350,2013-01-16 16:53:00
11:53 AM,37.9,35.1,89,30.08,10.0,NNW,10.4,-,0.02,,Overcast,330,2013-01-16 17:53:00
1:14 PM,37.4,35.6,93,30.10,4.0,NW,9.2,-,0.02,,Overcast,320,2013-01-16 19:14:00
1:49 PM,37.4,35.6,93,30.07,10.0,North,10.4,-,0.02,,Overcast,350,2013-01-16 19:49:00
1:53 PM,37.0,34.0,89,30.08,10.0,North,9.2,-,0.02,,Overcast,350,2013-01-16 19:53:00
2:14 PM,37.4,35.6,93,30.06,9.0,ENE,5.8,-,N/A,,Overcast,70,2013-01-16 20:14:00
2:39 PM,37.4,33.8,87,30.07,10.0,NNE,5.8,-,N/A,,Overcast,30,2013-01-16 20:39:00
2:53 PM,37.0,34.0,89,30.09,10.0,NNE,5.8,-,N/A,,Overcast,20,2013-01-16 20:53:00
3:53 PM,37.9,35.1,89,30.07,10.0,NNE,4.6,-,N/A,,Overcast,20,2013-01-16 21:53:00
4:05 PM,37.4,35.6,93,30.06,10.0,North,6.9,-,N/A,,Overcast,10,2013-01-16 22:05:00
4:53 PM,37.9,35.1,89,30.09,9.0,North,-9999.0,-,N/A,,Overcast,0,2013-01-16 22:53:00
5:44 PM,37.4,35.6,93,30.08,8.0,North,8.1,-,N/A,,Overcast,360,2013-01-16 23:44:00
5:53 PM,37.9,35.1,89,30.09,9.0,North,8.1,-,N/A,,Overcast,360,2013-01-16 23:53:00
6:10 PM,37.4,35.6,93,30.08,8.0,North,8.1,-,N/A,,Overcast,360,2013-01-17 00:10:00
6:53 PM,37.9,36.0,93,30.09,8.0,Calm,Calm,-,N/A,,Overcast,0,2013-01-17 00:53:00
7:05 PM,37.4,35.6,93,30.08,7.0,North,4.6,-,N/A,,Overcast,360,2013-01-17 01:05:00
7:53 PM,37.9,36.0,93,30.06,7.0,NNE,5.8,-,N/A,,Overcast,20,2013-01-17 01:53:00
8:24 PM,37.4,35.6,93,30.09,8.0,NNW,5.8,-,N/A,,Overcast,330,2013-01-17 02:24:00
8:53 PM,37.9,36.0,93,30.11,7.0,NNW,9.2,-,N/A,,Overcast,330,2013-01-17 02:53:00
9:22 PM,37.4,35.6,93,30.06,7.0,North,6.9,-,N/A,,Overcast,10,2013-01-17 03:22:00
9:36 PM,37.4,35.6,93,30.07,7.0,NE,3.5,-,N/A,,Overcast,40,2013-01-17 03:36:00
9:53 PM,37.9,36.0,93,30.08,7.0,North,8.1,-,N/A,,Overcast,350,2013-01-17 03:53:00
10:23 PM,39.2,35.6,87,30.08,7.0,North,6.9,-,N/A,,Overcast,350,2013-01-17 04:23:00
10:35 PM,39.2,35.6,87,30.08,6.0,NNW,6.9,-,N/A,,Overcast,340,2013-01-17 04:35:00
10:53 PM,37.9,36.0,93,30.07,6.0,North,8.1,-,N/A,,Overcast,360,2013-01-17 04:53:00
11:53 PM,39.0,36.0,89,30.07,7.0,North,6.9,-,N/A,,Overcast,360,2013-01-17 05:53:00